"read_dt","SO2 (ppb)","flags","PMT voltage (V)","lamp voltage (V)","lamp intensity (Hz)","internal temp (C)","react chamber temp (C)","sample flow (l/min)","pres (mmHg)","SO2 bkg (ppb)","SO2 coefficient"
2014-09-29 00:00:00,1802E-3,5C000000,-0724,0827,12290,024.2,045.4,0.484,737.6,01.18,0.508
2014-09-29 00:01:00,1925E-3,5C000000,-0724,0828,12175,024.1,045.4,0.484,737.5,01.18,0.508
2014-09-29 00:02:00,1775E-3,5C000000,-0724,0826,12265,024.1,045.4,0.484,737.5,01.18,0.508
2014-09-29 00:03:00,1769E-3,5C000000,-0724,0828,12240,024.1,045.4,0.484,737.6,01.18,0.508
2014-09-29 00:04:00,1695E-3,5C000000,-0724,0829,12175,024.1,045.4,0.484,737.6,01.18,0.508
2014-09-29 00:05:00,1772E-3,5C000000,-0724,0827,12184,024.1,045.3,0.484,737.6,01.18,0.508
2014-09-29 00:06:00,1817E-3,5C000000,-0724,0828,12212,024.1,045.4,0.484,737.6,01.18,0.508
2014-09-29 00:07:00,1803E-3,5C000000,-0724,0827,12274,024.1,045.4,0.483,737.5,01.18,0.508
2014-09-29 00:08:00,1937E-3,5C000000,-0724,0828,12303,024.2,045.4,0.484,737.5,01.18,0.508
2014-09-29 00:09:00,1767E-3,5C000000,-0724,0827,12125,024.1,045.3,0.484,737.5,01.18,0.508
2014-09-29 00:10:00,1627E-3,5C000000,-0724,0828,12228,024.1,045.3,0.483,737.5,01.18,0.508
2014-09-29 00:11:00,1734E-3,5C000000,-0724,0827,12195,024.1,045.4,0.484,737.5,01.18,0.508
2014-09-29 00:12:00,1866E-3,5C000000,-0724,0828,12202,024.1,045.4,0.484,737.5,01.18,0.508
2014-09-29 00:13:00,1833E-3,5C000000,-0724,0828,12308,024.2,045.3,0.484,737.5,01.18,0.508
2014-09-29 00:14:00,1769E-3,5C000000,-0724,0828,12332,024.2,045.4,0.483,737.5,01.18,0.508
2014-09-29 00:15:00,1785E-3,5C000000,-0724,0827,12239,024.2,045.3,0.484,737.5,01.18,0.508
2014-09-29 00:16:00,1749E-3,5C000000,-0724,0828,12311,024.1,045.4,0.484,737.5,01.18,0.508
2014-09-29 00:17:00,1869E-3,5C000000,-0724,0827,12212,024.1,045.3,0.483,737.5,01.18,0.508
2014-09-29 00:18:00,1633E-3,5C000000,-0724,0828,12232,024.1,045.3,0.484,737.5,01.18,0.508
2014-09-29 00:19:00,1708E-3,5C000000,-0724,0827,12312,024.2,045.3,0.484,737.5,01.18,0.508
2014-09-29 00:20:00,1811E-3,5C000000,-0724,0828,12304,024.1,045.3,0.483,737.5,01.18,0.508
2014-09-29 00:21:00,1705E-3,5C000000,-0724,0828,12376,024.2,045.4,0.484,737.5,01.18,0.508
2014-09-29 00:22:00,1783E-3,5C000000,-0724,0827,12112,024.1,045.4,0.484,737.5,01.18,0.508
2014-09-29 00:23:00,1728E-3,5C000000,-0724,0828,12186,024.1,045.3,0.484,737.5,01.18,0.508
2014-09-29 00:24:00,1863E-3,5C000000,-0724,0826,12221,024.1,045.4,0.483,737.5,01.18,0.508
2014-09-29 00:25:00,1752E-3,5C000000,-0724,0828,12297,024.2,045.4,0.484,737.5,01.18,0.508
2014-09-29 00:26:00,1755E-3,5C000000,-0724,0828,12166,024.1,045.4,0.484,737.5,01.18,0.508
2014-09-29 00:27:00,1884E-3,5C000000,-0724,0827,12212,024.2,045.4,0.483,737.5,01.18,0.508
2014-09-29 00:28:00,1795E-3,5C000000,-0724,0827,12277,024.1,045.4,0.484,737.5,01.18,0.508
2014-09-29 00:29:00,1814E-3,5C000000,-0724,0828,12310,024.2,045.4,0.484,737.5,01.18,0.508
2014-09-29 00:30:00,1790E-3,5C000000,-0724,0828,12284,024.2,045.4,0.484,737.5,01.18,0.508
2014-09-29 00:31:00,1815E-3,5C000000,-0724,0827,12189,024.1,045.3,0.483,737.5,01.18,0.508
2014-09-29 00:32:00,1732E-3,5C000000,-0724,0827,12176,024.1,045.4,0.484,737.4,01.18,0.508
2014-09-29 00:33:00,1710E-3,5C000000,-0724,0828,12162,024.1,045.4,0.484,737.4,01.18,0.508
2014-09-29 00:34:00,1796E-3,5C000000,-0724,0828,12206,024.1,045.4,0.483,737.4,01.18,0.508
2014-09-29 00:35:00,1693E-3,5C000000,-0724,0827,12229,024.1,045.4,0.484,737.4,01.18,0.508
2014-09-29 00:36:00,1865E-3,5C000000,-0724,0827,12094,024.1,045.4,0.484,737.4,01.18,0.508
2014-09-29 00:37:00,1742E-3,5C000000,-0724,0827,12073,024.2,045.4,0.483,737.4,01.18,0.508
2014-09-29 00:38:00,1769E-3,5C000000,-0724,0828,12278,024.1,045.4,0.483,737.4,01.18,0.508
2014-09-29 00:39:00,1823E-3,5C000000,-0724,0827,12276,024.1,045.4,0.484,737.4,01.18,0.508
2014-09-29 00:40:00,1757E-3,5C000000,-0724,0827,12254,024.1,045.3,0.484,737.4,01.18,0.508
2014-09-29 00:41:00,1708E-3,5C000000,-0724,0827,12201,024.2,045.3,0.483,737.4,01.18,0.508
2014-09-29 00:42:00,1814E-3,5C000000,-0724,0827,12297,024.1,045.4,0.484,737.4,01.18,0.508
2014-09-29 00:43:00,1786E-3,5C000000,-0724,0827,12250,024.1,045.3,0.484,737.4,01.18,0.508
2014-09-29 00:44:00,1711E-3,5C000000,-0724,0828,12192,024.1,045.3,0.483,737.4,01.18,0.508
2014-09-29 00:45:00,1830E-3,5C000000,-0724,0828,12311,024.1,045.4,0.484,737.4,01.18,0.508
2014-09-29 00:46:00,1768E-3,5C000000,-0724,0828,12303,024.1,045.3,0.484,737.4,01.18,0.508
2014-09-29 00:47:00,1758E-3,5C000000,-0724,0827,12145,024.2,045.4,0.483,737.4,01.18,0.508
2014-09-29 00:48:00,1746E-3,5C000000,-0724,0827,12298,024.1,045.4,0.484,737.4,01.18,0.508
2014-09-29 00:49:00,1839E-3,5C000000,-0724,0827,12115,024.1,045.3,0.484,737.4,01.18,0.508
2014-09-29 00:50:00,1723E-3,5C000000,-0724,0828,12336,024.1,045.3,0.483,737.4,01.18,0.508
2014-09-29 00:51:00,1852E-3,5C000000,-0724,0827,11877,024.2,045.3,0.484,737.4,01.18,0.508
2014-09-29 00:52:00,1731E-3,5C000000,-0724,0827,12148,024.1,045.4,0.484,737.4,01.18,0.508
2014-09-29 00:53:00,1645E-3,5C000000,-0724,0828,12154,024.1,045.3,0.483,737.4,01.18,0.508
2014-09-29 00:54:00,1805E-3,5C000000,-0724,0827,12308,024.1,045.3,0.484,737.4,01.18,0.508
2014-09-29 00:55:00,1559E-3,5C000000,-0724,0829,12252,024.1,045.3,0.484,737.4,01.18,0.508
2014-09-29 00:56:00,1810E-3,5C000000,-0724,0828,12130,024.1,045.4,0.484,737.4,01.18,0.508
2014-09-29 00:57:00,1813E-3,5C000000,-0724,0828,12246,024.1,045.4,0.483,737.4,01.18,0.508
2014-09-29 00:58:00,1769E-3,5C000000,-0724,0827,12276,024.1,045.4,0.484,737.4,01.18,0.508
2014-09-29 00:59:00,1775E-3,5C000000,-0724,0828,12126,024.1,045.3,0.484,737.4,01.18,0.508
2014-09-29 01:00:00,1760E-3,5C000000,-0724,0828,12234,024.1,045.4,0.483,737.4,01.18,0.508
2014-09-29 01:01:00,1729E-3,5C000000,-0724,0829,12013,024.1,045.4,0.484,737.4,01.18,0.508
2014-09-29 01:02:00,1750E-3,5C000000,-0724,0827,12159,024.2,045.3,0.484,737.4,01.18,0.508
2014-09-29 01:03:00,1770E-3,5C000000,-0724,0828,12149,024.1,045.3,0.484,737.4,01.18,0.508
2014-09-29 01:04:00,1730E-3,5C000000,-0724,0827,12236,024.1,045.3,0.484,737.4,01.18,0.508
2014-09-29 01:05:00,1842E-3,5C000000,-0724,0827,12203,024.1,045.4,0.484,737.4,01.18,0.508
2014-09-29 01:06:00,1898E-3,5C000000,-0724,0828,12352,024.1,045.4,0.484,737.4,01.18,0.508
2014-09-29 01:07:00,1920E-3,5C000000,-0724,0827,12192,024.1,045.4,0.483,737.4,01.18,0.508
2014-09-29 01:08:00,1672E-3,5C000000,-0724,0828,12338,024.2,045.4,0.484,737.4,01.18,0.508
2014-09-29 01:09:00,1833E-3,5C000000,-0724,0828,12281,024.1,045.4,0.484,737.4,01.18,0.508
2014-09-29 01:10:00,1884E-3,5C000000,-0724,0827,12385,024.1,045.4,0.483,737.4,01.18,0.508
2014-09-29 01:11:00,1854E-3,5C000000,-0724,0827,12162,024.1,045.4,0.484,737.4,01.18,0.508
2014-09-29 01:12:00,1806E-3,5C000000,-0724,0827,12215,024.1,045.4,0.484,737.4,01.18,0.508
2014-09-29 01:13:00,1833E-3,5C000000,-0724,0827,12301,024.1,045.4,0.484,737.4,01.18,0.508
2014-09-29 01:14:00,1778E-3,5C000000,-0724,0828,12342,024.1,045.4,0.483,737.4,01.18,0.508
2014-09-29 01:15:00,1869E-3,5C000000,-0724,0828,12178,024.1,045.4,0.484,737.4,01.18,0.508
2014-09-29 01:16:00,1832E-3,5C000000,-0724,0828,12207,024.1,045.3,0.484,737.4,01.18,0.508
2014-09-29 01:17:00,1724E-3,5C000000,-0724,0827,12119,024.1,045.4,0.483,737.4,01.18,0.508
2014-09-29 01:18:00,1785E-3,5C000000,-0724,0828,12165,024.1,045.4,0.484,737.4,01.18,0.508
2014-09-29 01:19:00,1752E-3,5C000000,-0724,0829,12435,024.2,045.4,0.484,737.4,01.18,0.508
2014-09-29 01:20:00,1842E-3,5C000000,-0724,0828,12263,024.2,045.4,0.483,737.4,01.18,0.508
2014-09-29 01:21:00,1809E-3,5C000000,-0724,0829,12171,024.2,045.4,0.484,737.4,01.18,0.508
2014-09-29 01:22:00,1805E-3,5C000000,-0724,0828,12414,024.2,045.4,0.484,737.4,01.18,0.508
2014-09-29 01:23:00,1859E-3,5C000000,-0724,0827,12326,024.2,045.4,0.484,737.4,01.18,0.508
2014-09-29 01:24:00,1895E-3,5C000000,-0724,0827,12145,024.1,045.3,0.483,737.4,01.18,0.508
2014-09-29 01:25:00,1845E-3,5C000000,-0724,0828,12174,024.2,045.3,0.484,737.4,01.18,0.508
2014-09-29 01:26:00,1800E-3,5C000000,-0724,0828,12231,024.2,045.3,0.484,737.4,01.18,0.508
2014-09-29 01:27:00,1796E-3,5C000000,-0724,0828,12295,024.1,045.3,0.483,737.5,01.18,0.508
2014-09-29 01:28:00,1968E-3,5C000000,-0724,0827,12076,024.2,045.3,0.484,737.4,01.18,0.508
2014-09-29 01:29:00,1866E-3,5C000000,-0724,0827,12213,024.2,045.3,0.484,737.4,01.18,0.508
2014-09-29 01:30:00,1834E-3,5C000000,-0724,0828,12252,024.2,045.4,0.484,737.5,01.18,0.508
2014-09-29 01:31:00,1868E-3,5C000000,-0724,0828,12012,024.2,045.4,0.483,737.4,01.18,0.508
2014-09-29 01:32:00,1925E-3,5C000000,-0724,0827,12185,024.2,045.4,0.484,737.4,01.18,0.508
2014-09-29 01:33:00,1795E-3,5C000000,-0724,0828,11962,024.2,045.4,0.484,737.4,01.18,0.508
2014-09-29 01:34:00,1869E-3,5C000000,-0724,0828,12308,024.2,045.3,0.483,737.4,01.18,0.508
2014-09-29 01:35:00,1962E-3,5C000000,-0724,0828,12124,024.2,045.3,0.484,737.4,01.18,0.508
2014-09-29 01:36:00,1782E-3,5C000000,-0724,0827,12078,024.2,045.4,0.484,737.4,01.18,0.508
2014-09-29 01:37:00,1877E-3,5C000000,-0724,0828,12308,024.2,045.4,0.483,737.4,01.18,0.508
2014-09-29 01:38:00,1826E-3,5C000000,-0724,0827,12255,024.1,045.4,0.484,737.4,01.18,0.508
2014-09-29 01:39:00,1867E-3,5C000000,-0724,0827,12173,024.2,045.3,0.484,737.4,01.18,0.508
2014-09-29 01:40:00,1905E-3,5C000000,-0724,0828,12279,024.2,045.3,0.484,737.4,01.18,0.508
2014-09-29 01:41:00,1874E-3,5C000000,-0724,0828,12341,024.2,045.4,0.484,737.4,01.18,0.508
2014-09-29 01:42:00,1809E-3,5C000000,-0724,0828,11947,024.2,045.4,0.484,737.4,01.18,0.508
2014-09-29 01:43:00,1922E-3,5C000000,-0724,0828,12205,024.2,045.4,0.484,737.4,01.18,0.508
2014-09-29 01:44:00,1799E-3,5C000000,-0724,0827,12230,024.2,045.4,0.483,737.4,01.18,0.508
2014-09-29 01:45:00,1802E-3,5C000000,-0724,0827,12229,024.2,045.3,0.484,737.3,01.18,0.508
2014-09-29 01:46:00,1890E-3,5C000000,-0724,0828,12337,024.2,045.3,0.484,737.4,01.18,0.508
2014-09-29 01:47:00,1803E-3,5C000000,-0724,0827,12222,024.2,045.3,0.483,737.4,01.18,0.508
2014-09-29 01:48:00,1850E-3,5C000000,-0724,0827,12356,024.2,045.4,0.484,737.4,01.18,0.508
2014-09-29 01:49:00,1889E-3,5C000000,-0724,0828,12097,024.2,045.4,0.484,737.4,01.18,0.508
2014-09-29 01:50:00,1824E-3,5C000000,-0724,0827,12245,024.2,045.4,0.483,737.4,01.18,0.508
2014-09-29 01:51:00,1893E-3,5C000000,-0724,0827,12180,024.2,045.3,0.483,737.4,01.18,0.508
2014-09-29 01:52:00,1749E-3,5C000000,-0724,0828,12278,024.2,045.4,0.484,737.4,01.18,0.508
2014-09-29 01:53:00,1757E-3,5C000000,-0724,0827,12324,024.2,045.4,0.484,737.3,01.18,0.508
2014-09-29 01:54:00,1803E-3,5C000000,-0724,0827,12220,024.2,045.4,0.483,737.4,01.18,0.508
2014-09-29 01:55:00,1812E-3,5C000000,-0724,0828,12172,024.2,045.4,0.484,737.4,01.18,0.508
2014-09-29 01:56:00,1706E-3,5C000000,-0724,0828,12210,024.2,045.4,0.484,737.3,01.18,0.508
2014-09-29 01:57:00,1836E-3,5C000000,-0724,0829,12252,024.2,045.4,0.483,737.3,01.18,0.508
2014-09-29 01:58:00,1901E-3,5C000000,-0724,0828,12181,024.2,045.4,0.484,737.3,01.18,0.508
2014-09-29 01:59:00,1748E-3,5C000000,-0724,0827,12199,024.2,045.4,0.484,737.3,01.18,0.508
2014-09-29 02:00:00,1856E-3,5C000000,-0724,0828,12308,024.1,045.4,0.483,737.3,01.18,0.508
2014-09-29 02:01:00,1766E-3,5C000000,-0724,0827,12207,024.2,045.3,0.483,737.3,01.18,0.508
2014-09-29 02:02:00,1690E-3,5C000000,-0724,0827,12228,024.2,045.3,0.484,737.3,01.18,0.508
2014-09-29 02:03:00,1909E-3,5C000000,-0724,0827,12240,024.2,045.3,0.484,737.3,01.18,0.508
2014-09-29 02:04:00,1742E-3,5C000000,-0724,0828,12375,024.2,045.3,0.483,737.3,01.18,0.508
2014-09-29 02:05:00,1824E-3,5C000000,-0724,0827,12301,024.2,045.3,0.484,737.3,01.18,0.508
2014-09-29 02:06:00,1953E-3,5C000000,-0724,0827,12181,024.2,045.3,0.484,737.3,01.18,0.508
2014-09-29 02:07:00,1770E-3,5C000000,-0724,0827,12032,024.2,045.3,0.483,737.3,01.18,0.508
2014-09-29 02:08:00,1850E-3,5C000000,-0724,0828,12204,024.2,045.3,0.484,737.3,01.18,0.508
2014-09-29 02:09:00,1794E-3,5C000000,-0724,0827,12236,024.2,045.3,0.484,737.3,01.18,0.508
2014-09-29 02:10:00,1827E-3,5C000000,-0724,0828,12175,024.2,045.4,0.483,737.3,01.18,0.508
2014-09-29 02:11:00,1954E-3,5C000000,-0724,0828,12297,024.2,045.4,0.484,737.3,01.18,0.508
2014-09-29 02:12:00,1847E-3,5C000000,-0724,0827,12257,024.2,045.3,0.484,737.3,01.18,0.508
2014-09-29 02:13:00,1817E-3,5C000000,-0724,0828,12222,024.2,045.3,0.483,737.3,01.18,0.508
2014-09-29 02:14:00,1784E-3,5C000000,-0724,0828,12131,024.2,045.4,0.483,737.3,01.18,0.508
2014-09-29 02:15:00,1811E-3,5C000000,-0724,0827,12312,024.2,045.4,0.484,737.3,01.18,0.508
2014-09-29 02:16:00,1681E-3,5C000000,-0724,0828,12216,024.2,045.4,0.484,737.3,01.18,0.508
2014-09-29 02:17:00,1760E-3,5C000000,-0724,0829,12122,024.2,045.4,0.483,737.3,01.18,0.508
2014-09-29 02:18:00,1949E-3,5C000000,-0724,0828,12301,024.2,045.4,0.484,737.3,01.18,0.508
2014-09-29 02:19:00,1891E-3,5C000000,-0724,0827,12314,024.2,045.3,0.484,737.3,01.18,0.508
2014-09-29 02:20:00,1758E-3,5C000000,-0724,0828,12255,024.2,045.3,0.483,737.2,01.18,0.508
2014-09-29 02:21:00,1756E-3,5C000000,-0724,0828,12359,024.2,045.4,0.484,737.2,01.18,0.508
2014-09-29 02:22:00,1786E-3,5C000000,-0724,0828,12214,024.2,045.4,0.484,737.2,01.18,0.508
2014-09-29 02:23:00,1849E-3,5C000000,-0724,0827,12262,024.2,045.4,0.483,737.2,01.18,0.508
2014-09-29 02:24:00,1816E-3,5C000000,-0724,0827,12300,024.2,045.4,0.484,737.2,01.18,0.508
2014-09-29 02:25:00,1884E-3,5C000000,-0724,0829,12353,024.2,045.4,0.484,737.2,01.18,0.508
2014-09-29 02:26:00,1780E-3,5C000000,-0724,0827,12232,024.2,045.4,0.483,737.2,01.18,0.508
2014-09-29 02:27:00,1762E-3,5C000000,-0724,0828,12261,024.2,045.4,0.483,737.2,01.18,0.508
2014-09-29 02:28:00,1816E-3,5C000000,-0724,0828,12144,024.2,045.4,0.484,737.2,01.18,0.508
2014-09-29 02:29:00,1841E-3,5C000000,-0724,0828,12075,024.2,045.4,0.484,737.2,01.18,0.508
2014-09-29 02:30:00,1788E-3,5C000000,-0724,0828,12231,024.2,045.4,0.483,737.2,01.18,0.508
2014-09-29 02:31:00,1933E-3,5C000000,-0724,0828,12106,024.2,045.4,0.484,737.2,01.18,0.508
2014-09-29 02:32:00,2022E-3,5C000000,-0724,0828,12194,024.2,045.4,0.484,737.2,01.18,0.508
2014-09-29 02:33:00,1838E-3,5C000000,-0724,0828,12294,024.2,045.4,0.483,737.2,01.18,0.508
2014-09-29 02:34:00,1827E-3,5C000000,-0724,0827,12225,024.2,045.4,0.484,737.2,01.18,0.508
2014-09-29 02:35:00,1827E-3,5C000000,-0724,0828,12153,024.2,045.4,0.484,737.2,01.18,0.508
2014-09-29 02:36:00,1849E-3,5C000000,-0724,0827,12171,024.2,045.4,0.483,737.2,01.18,0.508
2014-09-29 02:37:00,1870E-3,5C000000,-0724,0828,12263,024.2,045.3,0.483,737.2,01.18,0.508
2014-09-29 02:38:00,1941E-3,5C000000,-0724,0828,12127,024.2,045.4,0.484,737.1,01.18,0.508
2014-09-29 02:39:00,1742E-3,5C000000,-0724,0828,12320,024.1,045.3,0.483,737.2,01.18,0.508
2014-09-29 02:40:00,1836E-3,5C000000,-0724,0827,12294,024.2,045.3,0.483,737.2,01.18,0.508
2014-09-29 02:41:00,1931E-3,5C000000,-0724,0828,12180,024.2,045.4,0.484,737.2,01.18,0.508
2014-09-29 02:42:00,1808E-3,5C000000,-0724,0828,12314,024.2,045.4,0.484,737.1,01.18,0.508
2014-09-29 02:43:00,1765E-3,5C000000,-0724,0827,12267,024.2,045.4,0.483,737.1,01.18,0.508
2014-09-29 02:44:00,1972E-3,5C000000,-0724,0827,12138,024.2,045.4,0.484,737.1,01.18,0.508
2014-09-29 02:45:00,1976E-3,5C000000,-0724,0827,12245,024.2,045.4,0.484,737.1,01.18,0.508
2014-09-29 02:46:00,1950E-3,5C000000,-0724,0828,12317,024.2,045.4,0.483,737.1,01.18,0.508
2014-09-29 02:47:00,1871E-3,5C000000,-0724,0828,12077,024.2,045.4,0.484,737.1,01.18,0.508
2014-09-29 02:48:00,2196E-3,5C000000,-0724,0828,12288,024.2,045.3,0.484,737.1,01.18,0.508
2014-09-29 02:49:00,1801E-3,5C000000,-0724,0828,12236,024.2,045.3,0.483,737.1,01.18,0.508
2014-09-29 02:50:00,1860E-3,5C000000,-0724,0827,12336,024.2,045.3,0.484,737.0,01.18,0.508
2014-09-29 02:51:00,1945E-3,5C000000,-0724,0828,12167,024.2,045.3,0.484,737.0,01.18,0.508
2014-09-29 02:52:00,1994E-3,5C000000,-0724,0828,12252,024.2,045.4,0.483,737.1,01.18,0.508
2014-09-29 02:53:00,1796E-3,5C000000,-0724,0828,12306,024.2,045.4,0.484,737.0,01.18,0.508
2014-09-29 02:54:00,1815E-3,5C000000,-0724,0828,12113,024.2,045.3,0.484,737.1,01.18,0.508
2014-09-29 02:55:00,1876E-3,5C000000,-0724,0827,12305,024.2,045.4,0.483,737.0,01.18,0.508
2014-09-29 02:56:00,1937E-3,5C000000,-0724,0827,12282,024.2,045.4,0.484,736.9,01.18,0.508
2014-09-29 02:57:00,1973E-3,5C000000,-0724,0827,12245,024.2,045.3,0.484,737.0,01.18,0.508
2014-09-29 02:58:00,2022E-3,5C000000,-0724,0826,12273,024.2,045.3,0.483,737.0,01.18,0.508
2014-09-29 02:59:00,1796E-3,5C000000,-0724,0827,12285,024.2,045.4,0.484,737.0,01.18,0.508
2014-09-29 03:00:00,1948E-3,5C000000,-0724,0827,12127,024.2,045.4,0.484,737.0,01.18,0.508
2014-09-29 03:01:00,2080E-3,5C000000,-0724,0828,12171,024.2,045.4,0.483,737.0,01.18,0.508
2014-09-29 03:02:00,1917E-3,5C000000,-0724,0829,12170,024.2,045.3,0.484,737.0,01.18,0.508
2014-09-29 03:03:00,1855E-3,5C000000,-0724,0827,12189,024.2,045.4,0.484,737.0,01.18,0.508
2014-09-29 03:04:00,1851E-3,5C000000,-0724,0827,12125,024.2,045.4,0.483,736.9,01.18,0.508
2014-09-29 03:05:00,1830E-3,5C000000,-0724,0828,12240,024.2,045.4,0.483,737.0,01.18,0.508
2014-09-29 03:06:00,1888E-3,5C000000,-0724,0828,12218,024.2,045.3,0.484,736.9,01.18,0.508
2014-09-29 03:07:00,1889E-3,5C000000,-0724,0828,12197,024.2,045.4,0.483,737.0,01.18,0.508
2014-09-29 03:08:00,1957E-3,5C000000,-0724,0828,12249,024.2,045.3,0.483,737.0,01.18,0.508
2014-09-29 03:09:00,1998E-3,5C000000,-0724,0828,12236,024.2,045.3,0.484,737.0,01.18,0.508
2014-09-29 03:10:00,1983E-3,5C000000,-0724,0828,12270,024.2,045.4,0.483,737.0,01.18,0.508
2014-09-29 03:11:00,1917E-3,5C000000,-0724,0828,12349,024.2,045.3,0.483,736.9,01.18,0.508
2014-09-29 03:12:00,1944E-3,5C000000,-0724,0827,12008,024.2,045.4,0.484,737.0,01.18,0.508
2014-09-29 03:13:00,2014E-3,5C000000,-0724,0828,12214,024.2,045.3,0.484,736.9,01.18,0.508
2014-09-29 03:14:00,1939E-3,5C000000,-0724,0828,12098,024.2,045.4,0.483,736.9,01.18,0.508
2014-09-29 03:15:00,2076E-3,5C000000,-0724,0828,12242,024.2,045.3,0.484,736.9,01.18,0.508
2014-09-29 03:16:00,1920E-3,5C000000,-0724,0828,12260,024.2,045.4,0.484,736.9,01.18,0.508
2014-09-29 03:17:00,1861E-3,5C000000,-0724,0828,12165,024.2,045.4,0.483,736.9,01.18,0.508
2014-09-29 03:18:00,1955E-3,5C000000,-0724,0828,12236,024.2,045.4,0.484,737.0,01.18,0.508
2014-09-29 03:19:00,2010E-3,5C000000,-0724,0828,12259,024.2,045.4,0.484,736.9,01.18,0.508
2014-09-29 03:20:00,1976E-3,5C000000,-0724,0828,12093,024.2,045.3,0.483,736.9,01.18,0.508
2014-09-29 03:21:00,1979E-3,5C000000,-0724,0827,12241,024.2,045.4,0.484,736.9,01.18,0.508
2014-09-29 03:22:00,1907E-3,5C000000,-0724,0828,12243,024.2,045.4,0.483,736.9,01.18,0.508
2014-09-29 03:23:00,1902E-3,5C000000,-0724,0828,12360,024.2,045.4,0.483,736.9,01.18,0.508
2014-09-29 03:24:00,2065E-3,5C000000,-0724,0827,12186,024.2,045.4,0.484,736.9,01.18,0.508
2014-09-29 03:25:00,1889E-3,5C000000,-0724,0828,12319,024.2,045.4,0.483,736.8,01.18,0.508
2014-09-29 03:26:00,2002E-3,5C000000,-0724,0828,12251,024.2,045.4,0.483,736.8,01.18,0.508
2014-09-29 03:27:00,1981E-3,5C000000,-0724,0828,12125,024.2,045.3,0.484,736.9,01.18,0.508
2014-09-29 03:28:00,2141E-3,5C000000,-0724,0827,12113,024.2,045.3,0.483,736.8,01.18,0.508
2014-09-29 03:29:00,1978E-3,5C000000,-0724,0827,12272,024.2,045.4,0.483,736.8,01.18,0.508
2014-09-29 03:30:00,2116E-3,5C000000,-0724,0828,12328,024.2,045.4,0.484,736.8,01.18,0.508
2014-09-29 03:31:00,2040E-3,5C000000,-0724,0828,12126,024.2,045.3,0.483,736.8,01.18,0.508
2014-09-29 03:32:00,2099E-3,5C000000,-0724,0828,12241,024.2,045.3,0.483,736.8,01.18,0.508
2014-09-29 03:33:00,2114E-3,5C000000,-0724,0828,12193,024.2,045.3,0.484,736.8,01.18,0.508
2014-09-29 03:34:00,2223E-3,5C000000,-0724,0828,12341,024.2,045.3,0.483,736.8,01.18,0.508
2014-09-29 03:35:00,2030E-3,5C000000,-0724,0828,12278,024.2,045.4,0.483,736.8,01.18,0.508
2014-09-29 03:36:00,2084E-3,5C000000,-0724,0828,12198,024.2,045.3,0.484,736.8,01.18,0.508
2014-09-29 03:37:00,2229E-3,5C000000,-0724,0828,12157,024.2,045.3,0.483,736.8,01.18,0.508
2014-09-29 03:38:00,2101E-3,5C000000,-0724,0828,12233,024.2,045.3,0.483,736.8,01.18,0.508
2014-09-29 03:39:00,1951E-3,5C000000,-0724,0828,12201,024.2,045.4,0.484,736.8,01.18,0.508
2014-09-29 03:40:00,2218E-3,5C000000,-0724,0829,12403,024.2,045.4,0.483,736.7,01.18,0.508
2014-09-29 03:41:00,2125E-3,5C000000,-0724,0828,12286,024.2,045.4,0.483,736.8,01.18,0.508
2014-09-29 03:42:00,2056E-3,5C000000,-0724,0828,12160,024.2,045.3,0.484,736.7,01.18,0.508
2014-09-29 03:43:00,2055E-3,5C000000,-0724,0828,12246,024.2,045.4,0.483,736.7,01.18,0.508
2014-09-29 03:44:00,2166E-3,5C000000,-0724,0828,12198,024.2,045.4,0.483,736.7,01.18,0.508
2014-09-29 03:45:00,2100E-3,5C000000,-0724,0828,12299,024.2,045.4,0.484,736.7,01.18,0.508
2014-09-29 03:46:00,2124E-3,5C000000,-0724,0827,12162,024.2,045.4,0.483,736.8,01.18,0.508
2014-09-29 03:47:00,2171E-3,5C000000,-0724,0828,12264,024.2,045.4,0.484,736.8,01.18,0.508
2014-09-29 03:48:00,1954E-3,5C000000,-0724,0828,12360,024.2,045.4,0.484,736.8,01.18,0.508
2014-09-29 03:49:00,1978E-3,5C000000,-0724,0828,12296,024.2,045.3,0.483,736.8,01.18,0.508
2014-09-29 03:50:00,1945E-3,5C000000,-0724,0828,12311,024.2,045.3,0.484,736.8,01.18,0.508
2014-09-29 03:51:00,2073E-3,5C000000,-0724,0827,12231,024.2,045.4,0.484,736.8,01.18,0.508
2014-09-29 03:52:00,1998E-3,5C000000,-0724,0827,12063,024.2,045.3,0.483,736.8,01.18,0.508
2014-09-29 03:53:00,2027E-3,5C000000,-0724,0827,12283,024.2,045.4,0.484,736.8,01.18,0.508
2014-09-29 03:54:00,2213E-3,5C000000,-0724,0827,12070,024.2,045.4,0.483,736.8,01.18,0.508
2014-09-29 03:55:00,2205E-3,5C000000,-0724,0827,12384,024.2,045.4,0.483,736.7,01.18,0.508
2014-09-29 03:56:00,2135E-3,5C000000,-0724,0827,12338,024.2,045.3,0.484,736.7,01.18,0.508
2014-09-29 03:57:00,2193E-3,5C000000,-0724,0827,12121,024.2,045.3,0.483,736.7,01.18,0.508
2014-09-29 03:58:00,2130E-3,5C000000,-0724,0827,12271,024.2,045.4,0.483,736.7,01.18,0.508
2014-09-29 03:59:00,2242E-3,5C000000,-0724,0828,12264,024.2,045.4,0.484,736.8,01.18,0.508
2014-09-29 04:00:00,2113E-3,5C000000,-0724,0827,12200,024.2,045.4,0.483,736.7,01.18,0.508
2014-09-29 04:01:00,2057E-3,5C000000,-0724,0827,12328,024.2,045.4,0.484,736.8,01.18,0.508
2014-09-29 04:02:00,2165E-3,5C000000,-0724,0828,12277,024.2,045.4,0.484,736.7,01.18,0.508
2014-09-29 04:03:00,2169E-3,5C000000,-0724,0827,12069,024.2,045.4,0.483,736.7,01.18,0.508
2014-09-29 04:04:00,2181E-3,5C000000,-0724,0827,12249,024.2,045.4,0.484,736.7,01.18,0.508
2014-09-29 04:05:00,2268E-3,5C000000,-0724,0828,12358,024.2,045.3,0.484,736.7,01.18,0.508
2014-09-29 04:06:00,2124E-3,5C000000,-0724,0827,12191,024.2,045.4,0.483,736.7,01.18,0.508
2014-09-29 04:07:00,2262E-3,5C000000,-0724,0827,12172,024.2,045.4,0.484,736.7,01.18,0.508
2014-09-29 04:08:00,2190E-3,5C000000,-0724,0828,12278,024.2,045.3,0.483,736.7,01.18,0.508
2014-09-29 04:09:00,2011E-3,5C000000,-0724,0827,12225,024.2,045.3,0.483,736.7,01.18,0.508
2014-09-29 04:10:00,2257E-3,5C000000,-0724,0827,12011,024.2,045.4,0.484,736.7,01.18,0.508
2014-09-29 04:11:00,2144E-3,5C000000,-0724,0828,12210,024.2,045.4,0.483,736.7,01.18,0.508
2014-09-29 04:12:00,2331E-3,5C000000,-0724,0828,11974,024.2,045.4,0.483,736.7,01.18,0.508
2014-09-29 04:13:00,2217E-3,5C000000,-0724,0827,12164,024.2,045.4,0.484,736.6,01.18,0.508
2014-09-29 04:14:00,2091E-3,5C000000,-0724,0828,12402,024.2,045.4,0.483,736.7,01.18,0.508
2014-09-29 04:15:00,2186E-3,5C000000,-0724,0828,12308,024.2,045.4,0.483,736.7,01.18,0.508
2014-09-29 04:16:00,2213E-3,5C000000,-0724,0828,12277,024.2,045.4,0.484,736.6,01.18,0.508
2014-09-29 04:17:00,2143E-3,5C000000,-0724,0828,12205,024.2,045.4,0.483,736.7,01.18,0.508
2014-09-29 04:18:00,2201E-3,5C000000,-0724,0827,12048,024.2,045.3,0.484,736.7,01.18,0.508
2014-09-29 04:19:00,2086E-3,5C000000,-0724,0829,12143,024.2,045.4,0.483,736.7,01.18,0.508
2014-09-29 04:20:00,2212E-3,5C000000,-0724,0827,12278,024.2,045.4,0.483,736.7,01.18,0.508